Location: La Pernelle
(49.6188°N, 1.2999°W)
Time: 14:28:36
(UTC+00:00)

Resurs 01 Rocket - Pass Details

Date: 12 June 2021
Orbit: 635 x 643 km, 97.9° (Epoch: 04 August)

Event Time Altitude Azimuth Distance (km) Brightness Sun altitude
Rises 21:07:48 0° 185° (S) 2,923 4.6 -7.2°
Reaches altitude 10° 21:10:06 10° 193° (SSW) 2,019 3.8 -7.5°
Maximum altitude 21:14:14 39° 263° (W) 957 2.9 -7.9°
Drops below altitude 10° 21:18:24 10° 332° (NNW) 2,034 5.8 -8.3°
Sets 21:20:44 0° 340° (NNW) 2,947 6.7 -8.5°
